Theta_e
325 325 325 323 324 323 323 323 323 324 323 323 323 322 322 320 319 317 315 313 311 310 309 307 306 305 305 303 302 301 300 300 300 301 300 300 299 298 297 297 296 295 293 291 291 291 290 291 291 290 290 289 288 287 286 285 285 285 284 284 283 283 282 282 282 282 281 281 281
324 324 323 323 323 323 323 323 322 323 323 322 322 322 321 320 319 317 316 313 311 310 308 305 304 304 304 303 302 301 300 300 300 300 300 299 298 297 296 296 296 294 292 291 291 290 290 291 291 290 290 289 288 287 286 285 285 285 284 283 283 282 282 282 282 281 281 281 281
324 323 323 323 322 322 322 322 322 322 321 321 322 321 320 318 317 316 314 313 312 310 307 304 303 302 302 301 301 300 300 300 300 300 298 298 297 296 296 296 295 294 293 291 291 291 291 291 291 290 290 289 288 287 286 285 285 285 284 283 283 283 283 283 281 281 281 282 281
323 323 322 322 321 321 322 322 322 321 320 320 321 319 317 315 315 314 313 312 310 307 305 302 301 300 300 300 300 300 300 300 300 299 297 297 296 296 296 296 295 294 292 291 291 291 291 291 291 291 290 288 288 287 286 285 285 284 284 283 283 283 283 283 282 282 282 282 281
321 322 322 322 321 321 322 322 322 320 320 319 319 317 315 314 313 312 311 310 308 305 303 301 300 300 300 300 300 300 300 300 299 298 296 296 296 296 295 295 294 293 292 292 291 291 291 292 291 290 289 289 289 287 286 284 284 284 284 283 284 283 283 283 282 282 282 282 281
320 321 321 322 321 321 321 322 321 320 319 319 317 314 313 313 312 311 309 308 305 302 301 301 300 300 300 300 300 300 300 299 298 297 296 296 295 295 295 294 294 293 292 292 291 291 291 292 291 290 290 290 289 287 285 285 285 285 284 284 283 283 283 282 282 282 282 282 281
320 320 321 321 320 320 321 320 319 318 318 317 314 313 311 311 310 309 308 306 302 301 301 301 301 300 300 299 299 299 298 298 297 296 296 296 295 295 294 293 292 292 292 291 291 291 291 292 291 291 291 291 290 287 286 286 286 285 284 284 283 283 282 281 282 282 282 281 281
319 320 320 320 320 319 319 318 317 318 317 315 313 311 310 309 309 307 306 303 302 301 301 301 300 300 299 299 299 298 298 297 296 295 295 295 294 293 293 292 292 292 291 291 291 291 292 292 292 291 291 291 290 288 286 287 286 285 284 283 283 282 281 280 281 281 282 282 281
318 318 318 318 318 318 318 317 316 316 315 312 311 309 309 308 308 306 304 302 302 301 301 301 300 300 299 299 298 298 297 296 295 294 294 294 293 292 292 292 291 291 291 291 292 292 292 292 292 291 291 291 290 288 287 286 286 285 284 283 283 282 281 280 280 281 281 281 281
317 316 316 316 317 317 316 315 315 314 313 310 309 308 308 308 307 305 304 303 302 302 301 301 300 299 299 299 298 298 297 296 295 294 293 293 292 292 292 292 291 291 291 291 292 292 292 292 291 291 291 291 289 287 286 285 285 284 284 283 283 282 281 280 280 281 281 281 281
315 314 314 315 315 315 314 313 313 312 311 309 308 308 307 307 306 304 304 303 302 301 301 300 300 299 299 298 298 298 297 296 295 293 293 292 293 293 292 292 291 291 291 291 292 292 292 292 291 290 289 290 288 286 285 285 285 284 283 282 282 282 281 280 280 280 280 280 280
312 312 312 313 313 313 312 311 311 310 309 307 307 306 306 305 305 304 303 302 301 301 301 301 300 299 299 298 298 297 297 295 294 293 293 293 293 292 292 292 291 291 291 292 292 292 292 291 290 289 288 288 287 286 285 284 284 283 283 282 281 281 281 280 280 279 279 279 280
309 310 311 311 311 311 310 310 309 308 307 306 306 306 305 304 304 304 303 302 302 301 301 300 300 299 298 297 297 296 295 294 293 293 293 292 292 292 291 291 291 291 291 292 292 292 291 290 289 288 287 286 285 285 284 284 284 284 283 282 282 281 281 280 280 279 279 279 280
308 309 310 309 309 309 309 308 307 307 306 305 305 305 304 303 303 303 303 302 302 301 300 300 299 299 298 296 295 295 294 294 293 293 292 292 291 291 291 291 291 291 291 291 291 291 291 290 289 287 286 285 284 284 284 284 284 284 283 283 282 282 281 280 279 279 279 279 280
309 309 308 307 308 308 308 307 306 306 305 305 305 304 304 303 303 303 303 302 301 301 300 299 298 298 297 295 295 294 294 293 292 292 291 291 291 291 291 291 291 290 290 289 289 289 289 288 287 287 286 285 285 284 283 283 283 283 283 283 282 281 281 280 279 279 279 279 279
308 308 307 307 307 307 307 305 305 305 305 305 304 304 303 303 303 303 302 301 300 300 299 298 297 296 295 295 294 294 293 292 292 291 291 291 291 291 291 291 290 289 289 288 288 288 288 287 287 287 287 286 285 284 283 283 282 282 282 281 281 281 280 280 279 279 279 279 279
307 306 306 306 306 305 305 305 305 305 304 304 303 303 302 302 302 302 301 300 299 298 297 296 296 295 295 295 294 293 292 291 291 291 291 291 291 291 290 290 289 289 288 288 288 288 288 288 288 287 287 286 285 284 283 283 282 282 281 281 281 280 280 281 281 280 279 279 280
306 305 305 305 305 304 304 305 305 304 304 303 303 302 302 302 302 301 300 299 298 297 296 295 295 295 294 294 293 293 292 291 291 292 292 291 291 291 290 290 290 289 289 289 288 288 287 287 287 287 286 286 285 284 284 284 283 283 282 282 282 281 281 282 281 280 280 280 281
305 304 304 304 304 304 304 305 304 304 303 302 302 302 302 301 301 300 299 298 297 296 295 295 295 294 294 294 293 293 293 292 292 292 292 292 291 291 290 289 289 289 289 289 288 288 288 288 288 287 287 287 286 286 285 285 285 284 284 284 283 283 282 282 282 281 281 280 281
304 304 303 304 304 304 304 304 303 303 302 302 301 301 301 300 300 299 298 297 296 296 295 295 294 294 294 293 293 293 293 293 292 292 292 292 291 290 289 289 289 289 289 289 289 289 288 289 289 288 288 288 287 287 286 286 285 285 285 284 284 283 283 283 282 281 281 280 280
303 303 303 304 304 304 304 303 302 302 301 301 301 300 300 299 298 297 296 296 296 295 295 294 294 294 293 293 293 292 292 292 292 291 291 290 289 289 289 289 289 289 289 289 289 289 289 289 289 289 288 288 287 287 286 286 285 285 284 284 284 283 283 282 281 281 280 280 280
303 304 304 304 304 303 302 302 301 301 300 300 300 299 299 298 297 296 296 296 295 295 295 294 294 293 293 293 292 292 291 291 290 290 289 289 289 289 289 290 289 289 289 289 289 289 289 289 289 289 288 288 287 287 286 286 285 285 284 283 283 283 282 282 281 280 280 280 280
303 303 303 302 302 302 301 301 300 300 299 299 298 298 297 297 296 295 295 295 295 295 294 294 293 293 293 292 291 290 290 289 289 289 289 289 290 290 290 290 290 290 289 289 289 289 289 289 288 288 288 287 287 286 286 286 285 284 283 283 282 282 282 281 281 280 280 280 280
301 301 301 301 301 300 300 300 299 299 298 297 297 296 296 295 295 294 294 294 294 293 293 293 293 292 291 291 290 289 289 289 289 289 289 290 290 290 290 290 289 289 289 289 290 290 289 289 288 287 287 287 286 285 285 285 284 283 283 282 282 282 281 281 281 281 280 280 280
299 299 299 299 299 299 299 298 298 297 296 296 295 295 294 294 293 293 293 293 292 292 292 291 291 291 290 290 289 289 289 289 289 289 289 289 289 289 289 289 289 289 290 291 292 292 292 290 289 288 287 286 286 285 285 284 284 283 283 283 282 282 282 281 281 281 280 280 279
297 298 298 298 298 297 297 296 296 295 294 294 294 293 293 293 293 292 292 291 291 291 290 290 290 290 290 289 289 289 289 289 289 289 288 288 288 288 288 289 289 289 290 292 293 293 293 292 291 289 288 286 286 286 285 284 284 283 283 282 282 282 282 281 281 281 280 280 279
296 296 296 296 296 296 295 295 294 294 293 293 293 292 292 292 292 291 291 290 290 290 290 290 290 290 290 290 289 289 289 289 289 289 288 288 288 288 288 288 289 290 291 292 293 293 293 293 292 290 289 287 286 285 285 284 283 283 282 282 282 281 281 281 280 280 280 279 278
295 295 294 294 294 294 294 293 293 293 292 292 292 292 292 291 291 290 290 290 290 290 289 289 290 290 290 289 289 289 288 288 288 288 288 288 288 288 288 288 289 290 292 294 294 294 294 293 292 291 289 287 285 284 284 283 283 282 282 281 281 281 280 280 280 279 279 278 277
293 293 293 292 292 292 292 292 292 291 291 291 291 291 291 290 290 290 289 289 289 289 289 289 290 290 289 289 289 288 288 288 288 288 288 288 288 288 289 289 290 291 293 295 295 295 294 294 293 291 290 287 285 284 283 283 282 282 281 281 280 280 280 279 279 278 277 276 276
292 292 291 291 291 291 291 290 290 290 290 290 290 290 290 289 289 289 289 289 289 289 289 289 289 289 288 288 288 288 288 288 288 288 288 288 288 288 289 290 290 292 294 295 295 295 294 294 292 291 290 288 285 283 282 282 282 281 281 280 279 279 278 278 277 276 276 275 275
291 291 290 290 290 289 289 290 290 290 290 290 290 290 289 289 289 289 289 289 289 289 290 289 289 288 288 288 288 288 288 288 288 288 288 288 288 288 289 289 290 292 294 294 294 293 293 293 292 290 289 287 285 283 282 281 281 280 280 279 278 278 277 277 276 275 275 274 275
291 290 290 289 289 289 289 289 289 289 289 289 289 289 288 288 288 289 289 289 289 289 289 288 288 288 288 288 287 287 287 287 287 287 288 288 288 288 288 289 290 292 293 293 293 293 292 292 291 290 288 287 285 282 281 281 280 279 279 278 277 276 276 276 275 274 274 273 273
290 290 289 289 289 289 289 289 289 289 289 288 288 288 288 288 288 288 288 289 288 288 288 288 287 287 287 287 286 286 286 287 287 288 288 288 288 288 288 289 290 291 293 293 292 292 292 291 290 289 288 287 284 282 280 279 279 278 277 277 276 275 274 274 273 273 272 272 271
289 289 289 288 288 288 288 288 288 288 288 287 287 287 287 287 287 287 288 288 288 288 288 287 287 287 287 286 286 286 286 287 287 287 287 288 288 288 288 288 289 291 292 292 292 292 291 291 290 289 288 286 283 280 279 278 277 277 276 275 275 274 273 272 272 272 271 271 271
288 288 288 288 288 288 288 287 287 287 287 287 287 287 287 287 287 287 287 288 288 287 287 287 287 287 287 286 286 286 286 286 286 287 287 287 287 288 288 287 288 290 292 291 291 291 291 290 289 288 287 285 281 278 277 276 275 275 274 273 273 273 272 271 271 271 271 271 271
288 287 287 287 287 287 287 287 287 287 287 286 286 286 287 287 287 287 288 288 288 287 286 287 287 286 286 286 286 286 286 286 286 286 287 287 287 287 286 285 286 289 291 291 290 290 290 290 289 288 286 282 278 276 275 274 273 272 272 272 273 273 272 272 272 272 272 272 271
287 287 287 286 286 286 286 286 286 286 286 286 286 287 287 287 287 288 288 288 287 286 286 286 286 286 286 286 286 286 286 286 286 286 286 287 286 285 284 283 283 286 289 290 290 290 290 290 289 287 284 279 275 273 273 272 271 271 271 271 272 271 271 271 272 272 272 272 273
287 287 287 286 286 286 286 286 286 286 286 286 286 286 287 287 287 287 288 288 287 286 286 286 286 285 285 285 285 285 285 286 286 286 286 285 285 284 283 282 282 284 287 290 290 290 290 289 288 287 283 277 274 272 272 272 271 272 272 272 272 271 271 271 271 271 272 273 279
287 287 287 286 286 286 286 286 286 286 286 286 286 286 286 286 286 287 287 287 286 286 285 285 285 285 285 285 284 284 284 284 285 285 284 283 283 283 283 281 281 282 285 288 289 289 289 289 288 287 284 278 273 272 272 272 272 272 272 272 272 271 271 271 271 271 272 274 281
287 287 286 286 286 286 286 286 286 286 286 286 286 286 286 286 286 286 286 286 286 286 285 285 285 285 285 285 284 283 283 282 283 283 283 283 284 284 283 280 278 279 282 286 288 289 289 289 289 287 284 278 273 272 272 272 272 272 272 271 271 271 272 271 271 271 271 272 277
286 286 286 286 286 286 286 286 286 286 286 285 285 285 286 286 286 286 286 286 286 286 286 285 285 285 285 285 283 282 281 281 281 281 281 282 282 283 281 277 275 275 277 282 287 288 288 289 289 288 285 278 273 272 272 272 273 273 272 271 271 271 271 271 271 271 271 271 272
Wind_Speed
7 7 7 8 8 8 8 8 8 8 8 8 9 8 8 7 6 6 6 6 6 6 6 6 6 5 5 6 7 6 6 6 8 9 10 11 11 11 11 11 10 9 8 8 8 8 9 9 8 6 4 4 4 4 3 3 4 5 5 4 3 3 4 5 4 4 3 3 2
8 9 9 9 8 8 7 7 7 7 7 7 7 7 7 6 6 6 6 6 6 6 5 4 4 4 5 6 7 7 7 7 7 8 9 10 11 11 11 11 11 10 9 9 8 8 8 9 8 6 5 4 4 4 4 3 4 5 5 4 3 3 3 4 4 3 3 3 2
9 9 9 10 9 9 8 8 8 9 9 8 7 6 6 6 6 6 6 6 6 5 5 5 5 5 6 7 7 8 9 9 8 8 7 8 9 9 10 10 11 11 10 9 8 7 8 9 8 7 6 5 5 5 4 3 4 4 5 4 3 3 3 3 3 3 2 3 3
10 10 11 11 12 12 12 10 11 11 10 8 6 6 5 5 5 6 6 6 6 5 5 5 6 7 7 8 8 9 9 10 10 9 8 8 9 9 10 10 11 11 10 9 8 8 8 8 7 6 6 6 7 6 4 3 3 3 3 3 3 3 3 3 2 2 2 2 2
10 11 12 12 14 15 14 12 13 11 9 7 6 6 5 5 5 5 5 6 6 5 6 7 7 8 8 9 10 10 10 10 10 9 9 9 10 10 9 9 9 9 9 9 9 9 9 8 6 5 5 6 5 5 4 4 4 3 3 2 2 3 3 3 2 2 2 2 1
11 12 13 13 15 15 13 12 12 11 9 7 7 7 7 6 6 6 7 7 6 7 9 10 9 9 10 11 11 11 10 10 9 9 10 10 10 10 10 9 8 7 7 8 9 9 10 9 6 5 5 5 5 5 5 5 4 3 3 2 2 2 2 3 2 2 2 2 2
12 13 14 14 15 14 13 11 10 9 8 7 8 9 9 8 8 9 9 8 8 8 9 9 10 11 12 13 13 12 11 10 10 11 11 11 10 10 11 9 8 7 7 8 8 9 8 8 6 6 6 6 5 5 4 4 4 4 4 3 3 2 2 2 2 2 3 3 3
11 12 13 13 13 13 12 10 8 8 8 8 9 11 11 11 11 11 10 9 8 8 8 9 11 13 13 13 14 13 13 12 12 12 12 11 11 11 11 9 8 8 7 8 8 8 8 7 6 6 6 5 5 4 3 4 5 5 5 4 3 3 2 2 1 2 3 4 4
9 10 11 11 11 10 10 9 9 9 9 9 10 11 12 12 12 12 10 9 9 9 9 9 12 14 14 14 14 13 13 12 12 12 12 11 12 12 11 9 9 8 7 7 8 8 9 7 6 6 5 5 4 4 4 5 6 5 5 4 4 3 3 2 1 2 3 4 4
9 9 10 9 9 9 8 8 8 9 9 9 10 10 11 11 11 11 10 8 9 9 9 10 12 14 14 14 13 13 12 11 12 12 12 12 12 12 11 10 9 8 7 7 8 8 9 7 7 6 5 5 5 4 4 5 6 6 5 4 4 3 3 2 1 1 2 3 3
9 9 8 8 8 8 8 8 8 8 9 9 10 10 10 10 10 10 9 9 10 11 11 11 12 13 14 13 12 12 11 11 11 12 12 12 12 11 11 10 9 9 8 8 8 7 7 7 7 7 6 4 4 4 4 5 5 6 5 4 4 4 3 1 1 1 2 2 2
7 7 7 7 8 8 8 8 8 8 8 9 10 10 9 9 10 11 11 12 13 12 12 11 12 13 13 11 11 11 12 12 12 12 12 12 12 11 10 10 10 10 10 9 8 7 6 7 7 7 7 5 3 3 4 5 5 6 6 4 4 3 3 2 1 1 2 2 2
6 6 6 6 7 8 8 8 7 8 8 9 10 9 9 9 11 12 12 13 13 12 11 12 12 12 12 11 11 11 12 12 12 12 11 12 12 11 11 10 10 10 10 9 8 7 7 7 8 8 7 5 3 3 3 4 5 6 6 5 4 3 2 2 1 2 2 2 1
5 6 6 7 8 8 8 8 7 7 8 9 9 9 9 9 10 11 11 11 11 10 11 11 11 11 11 12 11 12 12 12 13 13 12 12 12 12 11 11 11 10 9 8 8 8 8 7 8 8 7 5 3 2 2 3 4 5 5 5 4 3 2 1 2 2 2 2 1
6 7 7 7 8 8 8 8 7 7 8 9 9 9 9 8 10 10 10 10 10 10 10 10 10 10 11 11 12 12 12 12 13 13 13 12 12 12 12 11 11 10 9 9 8 8 8 8 8 7 7 6 4 3 3 4 4 4 4 4 4 3 2 2 2 2 2 1 1
7 7 8 8 9 9 8 8 7 7 8 8 9 9 8 8 9 9 10 10 9 9 10 11 10 10 10 10 11 11 11 12 13 13 13 13 12 12 12 12 11 11 10 10 9 8 8 7 7 7 7 7 5 4 4 4 5 5 5 5 4 4 3 2 2 1 1 1 2
7 8 8 9 9 9 9 9 8 8 8 9 9 9 8 8 8 9 10 11 10 10 11 11 10 9 9 9 10 10 11 11 12 12 13 13 13 13 13 12 11 11 11 10 10 9 9 9 8 8 8 8 6 5 4 4 5 5 5 6 5 5 4 3 2 1 1 2 3
8 8 8 9 9 9 10 10 9 9 9 10 10 9 9 8 9 10 11 12 12 12 12 12 10 10 9 10 9 9 9 11 11 12 12 13 13 13 13 12 12 11 11 10 10 10 10 10 9 9 8 7 6 5 5 5 5 6 6 6 5 4 4 3 1 1 2 4 4
9 9 9 9 9 9 10 10 10 10 10 10 10 10 10 10 10 11 11 12 12 13 13 13 11 10 10 10 9 9 9 11 12 13 13 13 12 12 12 12 12 11 11 11 11 11 11 10 9 9 8 7 6 5 5 6 6 6 6 6 5 3 2 1 1 3 4 5 5
8 9 9 9 9 9 9 9 10 10 10 10 11 11 11 10 11 11 11 12 12 13 13 13 12 11 11 11 11 10 10 10 12 13 13 12 12 12 12 12 12 12 12 12 11 11 10 9 8 8 7 6 6 5 5 6 6 6 5 4 3 2 1 2 3 4 5 4 4
7 8 8 9 9 9 9 9 10 11 11 11 11 11 11 11 11 11 12 12 12 13 13 13 13 13 13 12 12 11 10 10 12 13 13 13 13 12 12 12 12 12 12 11 11 10 9 8 7 7 6 6 6 5 5 5 5 4 4 3 2 2 3 4 4 4 4 3 3
4 5 6 7 8 8 9 10 11 11 11 11 11 11 11 11 11 11 12 12 12 13 13 13 13 13 13 13 12 12 11 10 11 12 12 12 12 12 11 12 12 12 12 11 10 9 9 8 7 6 6 6 5 5 4 4 4 4 4 3 3 3 4 4 4 3 2 2 2
4 5 5 6 7 9 9 10 11 11 11 11 11 11 11 12 12 12 12 12 12 12 12 12 12 12 13 12 12 12 12 12 12 12 12 11 11 11 11 11 12 12 11 9 9 8 8 7 6 6 6 5 5 4 4 4 4 4 3 3 3 3 3 3 2 2 1 2 2
6 6 6 6 8 9 10 10 11 11 11 11 11 12 12 13 13 13 13 13 12 12 12 11 11 12 13 13 13 13 13 14 13 13 12 12 12 12 11 11 10 10 9 7 8 8 7 6 5 5 5 5 4 4 3 3 3 3 2 2 2 1 1 1 1 1 1 1 2
8 7 7 8 9 10 10 11 11 11 11 12 12 13 13 13 13 13 13 13 13 13 13 12 12 12 12 13 13 13 13 14 14 14 13 12 12 11 10 9 8 8 7 7 10 11 10 8 6 5 4 4 4 3 3 3 3 2 2 1 1 1 1 1 1 1 1 1 2
8 8 9 9 10 10 11 11 11 12 12 12 13 13 13 13 14 14 14 14 14 13 13 13 13 12 12 12 13 13 12 12 12 13 13 12 12 11 10 8 7 6 6 9 12 12 12 11 9 7 6 4 4 4 3 3 2 2 2 1 1 0 1 2 2 2 2 2 2
9 9 9 9 10 11 11 11 12 12 12 13 13 13 13 13 13 14 14 14 14 13 13 12 12 12 12 12 13 13 12 10 11 12 12 12 12 11 10 8 6 6 6 10 12 12 12 11 11 9 7 5 4 4 3 2 2 2 2 1 1 1 1 2 2 3 3 3 3
10 10 10 10 11 11 11 11 12 12 12 13 13 13 14 14 14 14 14 14 13 12 11 10 10 10 10 10 11 12 11 11 10 11 11 11 11 11 9 7 6 6 8 11 12 12 12 12 12 11 9 6 4 3 3 3 2 2 1 2 2 2 2 2 2 2 3 3 3
10 10 10 10 10 10 11 11 11 12 12 12 13 13 14 14 14 14 14 14 13 12 10 9 8 8 8 9 10 11 11 11 10 10 10 11 10 10 8 7 6 7 9 12 12 12 12 12 12 12 10 8 5 3 2 2 2 2 2 3 3 2 2 1 1 1 2 2 2
11 11 11 11 10 10 10 10 11 11 11 11 13 13 14 14 13 13 13 13 12 11 9 8 8 9 10 10 10 10 10 9 9 10 10 11 10 9 8 7 5 6 9 12 12 12 12 12 12 11 10 9 6 3 2 2 3 3 3 3 2 2 1 1 1 1 1 2 2
11 11 11 11 11 11 10 10 10 11 11 11 12 13 13 13 13 13 12 12 11 10 10 10 11 11 11 10 10 10 10 9 9 9 10 10 10 8 7 5 5 6 8 12 11 11 11 11 11 10 10 9 6 4 3 4 4 3 3 2 2 2 1 1 1 1 1 2 2
11 11 12 12 11 11 10 10 10 11 11 12 12 13 13 13 12 11 11 11 11 11 12 12 12 12 12 11 10 10 10 9 9 9 9 9 8 7 6 5 4 6 9 11 11 10 10 10 10 9 9 9 7 6 5 4 4 3 3 2 2 2 1 1 1 1 1 1 2
12 12 12 11 11 10 10 10 10 10 11 12 12 12 12 12 11 11 11 10 11 11 12 12 12 12 11 11 10 10 10 9 9 9 8 8 7 6 5 4 4 6 9 11 10 10 9 9 9 9 10 10 8 6 5 4 3 3 3 3 2 1 1 1 0 0 0 0 1
11 12 12 11 11 11 10 10 10 10 11 11 11 12 12 11 11 11 11 10 9 10 10 11 11 11 10 10 10 10 9 8 8 8 7 7 6 6 5 3 3 6 9 10 9 9 9 9 10 10 10 10 7 5 4 4 3 3 3 2 1 1 1 0 0 0 1 1 1
11 11 11 11 11 10 10 10 10 10 11 11 11 11 11 11 11 11 11 10 10 10 10 9 10 9 9 9 9 9 9 9 8 7 7 6 6 5 5 3 3 6 8 9 8 8 9 9 10 10 10 8 5 4 4 4 3 3 2 2 1 1 1 1 1 1 1 1 1
10 11 11 11 11 10 10 10 10 11 11 11 11 11 11 11 10 10 11 11 11 11 10 10 9 9 9 9 8 8 9 9 8 7 7 6 6 5 4 3 3 5 8 8 8 8 9 10 10 10 9 7 4 4 4 3 3 2 2 1 1 1 1 2 2 2 2 2 2
10 10 11 11 11 10 10 10 10 11 11 11 11 10 10 10 10 10 10 10 10 10 10 10 10 9 9 9 8 7 7 8 8 8 7 7 6 5 4 3 2 3 6 8 8 8 9 10 10 10 8 5 4 3 3 3 2 2 1 1 1 1 2 2 2 2 2 2 2
9 10 10 11 10 10 10 10 10 11 11 10 10 10 9 9 9 8 8 9 9 10 10 10 9 9 9 9 8 8 8 8 8 8 7 6 6 5 4 3 2 2 3 6 7 8 8 9 10 10 8 5 4 3 3 2 2 1 1 1 1 2 2 2 2 2 2 3 4
9 10 10 10 10 10 10 10 10 10 10 10 10 9 9 8 7 7 7 7 8 9 9 9 9 9 9 9 8 8 7 7 7 7 6 5 5 5 5 4 3 3 2 5 7 7 8 9 9 9 8 5 4 3 3 2 2 1 1 1 1 2 2 2 2 2 3 4 6
9 9 9 9 9 10 10 10 9 9 9 9 9 9 8 8 7 7 7 7 7 7 8 8 8 8 8 8 8 7 6 5 5 5 5 5 5 6 6 4 3 2 2 3 5 6 7 8 9 9 8 5 4 3 3 2 2 1 1 1 1 2 2 2 2 2 3 3 5
9 9 9 9 9 9 9 9 9 8 8 8 8 8 7 7 7 7 6 6 6 6 6 7 7 7 7 7 6 6 6 6 5 5 5 5 5 5 5 4 3 2 2 1 3 5 6 7 8 9 8 5 4 3 3 3 2 1 0 1 1 1 2 2 2 3 3 3 3
Wind_Direction
188 183 181 182 184 187 190 195 196 196 196 196 196 195 191 186 185 185 186 185 187 189 190 188 191 189 182 173 169 160 148 136 139 141 144 146 147 148 147 145 145 148 152 155 151 144 136 132 130 130 132 134 124 114 103 99 106 108 107 109 115 117 118 119 124 128 132 133 131
183 182 182 183 186 189 192 195 198 198 198 198 195 190 184 178 178 179 180 180 182 180 175 171 166 159 152 150 145 137 130 130 133 136 141 146 149 149 148 147 150 154 157 158 154 146 138 135 132 132 132 132 120 108 98 96 107 111 113 114 117 117 117 121 129 136 139 139 133
181 180 181 185 187 190 193 197 199 200 200 199 193 183 174 172 173 174 174 175 171 164 155 147 138 132 130 130 129 129 131 135 135 135 137 141 144 146 148 151 154 157 160 159 155 148 141 138 135 134 133 131 119 111 106 100 107 112 117 123 122 118 117 123 131 135 137 138 135
180 181 183 187 189 192 195 198 199 199 198 195 185 172 164 166 169 168 166 162 158 154 146 138 129 124 121 121 122 124 128 133 135 136 136 136 140 146 152 157 158 160 160 159 154 147 141 136 132 130 129 124 117 114 112 111 105 105 109 121 117 115 118 122 130 135 138 139 137
184 185 187 191 193 195 197 199 198 196 193 185 173 162 157 161 162 161 158 154 152 145 135 128 124 121 117 115 118 120 125 132 137 140 141 141 144 148 154 160 161 160 159 156 152 146 139 130 125 121 118 114 109 106 106 108 102 98 95 95 95 102 109 117 125 132 133 129 116
188 190 192 194 195 197 199 200 196 192 185 173 164 159 159 160 161 160 158 153 144 133 126 124 123 122 121 121 125 129 135 143 147 148 148 148 148 150 153 159 161 158 154 151 148 142 134 125 119 112 105 98 91 89 92 102 107 109 106 93 81 84 97 115 127 133 128 121 110
191 192 195 197 197 198 199 199 192 184 175 166 162 163 164 162 162 160 156 146 138 132 129 130 132 133 134 137 142 146 151 156 155 154 153 153 153 153 154 155 154 152 150 149 144 136 127 118 112 105 99 94 92 91 96 115 128 130 123 110 90 81 87 111 123 131 132 131 129
193 195 196 197 197 198 197 191 183 176 171 167 166 167 166 162 159 155 149 141 140 140 140 139 141 143 146 151 155 157 158 159 158 157 155 154 154 153 151 147 147 148 149 146 135 124 114 106 102 101 101 101 104 110 125 145 146 140 129 118 98 79 72 85 107 130 137 139 139
195 197 198 197 196 193 189 181 175 172 170 167 167 167 164 160 155 150 145 143 142 142 142 143 146 149 152 157 159 160 160 160 160 158 156 154 154 151 147 143 144 144 142 132 118 109 103 98 97 100 104 110 117 129 147 159 149 139 128 117 103 84 67 59 83 122 138 141 144
195 196 195 194 190 185 178 170 168 166 163 161 162 161 158 155 150 146 142 141 137 138 142 146 149 152 155 159 161 161 160 160 159 158 155 154 152 149 145 142 141 137 129 116 105 100 98 98 101 103 107 112 123 139 156 163 146 134 123 112 105 97 85 60 71 110 135 145 148
192 190 188 186 181 173 166 162 161 158 156 154 155 153 151 149 144 141 138 136 136 139 145 150 152 154 156 160 162 161 161 160 159 157 155 152 149 145 141 138 136 129 119 107 100 97 96 99 103 106 108 110 122 142 159 161 139 126 115 102 103 108 110 99 82 99 123 134 137
183 181 178 174 168 163 159 157 155 152 150 149 149 148 146 144 142 140 139 139 141 144 148 152 154 156 157 159 161 161 161 161 158 154 150 146 141 137 133 131 127 120 112 105 101 99 99 103 107 110 111 113 126 150 161 156 133 120 112 103 104 113 124 132 107 94 94 99 109
167 166 166 162 158 156 155 153 150 148 148 148 148 147 145 144 143 142 142 143 144 146 148 152 156 158 158 158 159 160 161 159 153 148 143 138 133 130 127 125 120 114 108 104 103 103 104 107 112 116 120 124 138 155 158 145 129 122 118 115 113 118 130 140 116 93 81 79 95
152 156 157 153 153 153 152 150 147 146 147 149 148 146 144 143 143 142 141 143 144 144 146 150 155 159 159 157 156 157 155 152 145 140 135 130 128 126 125 122 118 113 108 105 106 109 113 117 121 123 126 127 128 125 113 108 111 116 119 122 123 125 126 121 101 90 84 85 154
149 152 153 152 154 153 151 149 146 146 147 149 147 144 142 142 142 140 139 140 142 143 144 148 154 156 156 154 152 149 146 141 136 132 127 123 122 122 121 119 116 113 109 107 108 112 116 120 121 120 116 109 94 71 55 60 75 88 97 104 104 101 92 85 81 83 89 121 217
153 154 154 155 157 155 152 150 148 147 148 149 144 141 140 142 141 140 140 142 143 143 145 148 150 149 147 146 142 138 133 129 126 123 122 120 120 119 119 118 116 114 111 109 107 106 105 103 101 97 93 87 78 64 53 52 59 64 67 68 66 62 58 59 65 71 91 202 242
156 157 157 159 158 156 154 153 149 148 148 147 141 139 140 143 143 143 143 145 145 145 145 145 143 141 138 136 131 127 124 121 120 120 120 121 120 120 119 119 118 117 114 111 107 102 96 91 88 87 87 87 86 83 76 70 67 64 61 56 52 46 39 35 41 53 226 234 242
159 159 159 160 159 158 156 153 148 146 145 142 139 140 144 147 146 146 146 147 146 144 142 138 134 132 129 126 122 120 120 120 120 120 121 122 122 122 121 121 120 119 115 111 107 103 100 97 96 96 96 98 101 100 95 87 80 73 67 61 53 43 32 19 3 264 232 232 239
161 160 159 159 159 158 155 150 144 142 141 139 140 143 146 149 148 146 146 145 143 139 136 132 129 126 123 120 118 119 120 121 122 122 122 123 123 122 122 122 121 118 115 111 107 106 105 105 106 107 108 110 108 103 95 88 83 79 75 71 64 54 36 355 275 245 236 234 239
162 160 159 159 157 154 150 143 139 137 138 138 141 144 145 146 144 142 140 138 134 132 129 128 126 124 122 120 120 121 122 122 123 123 123 123 122 122 121 121 118 116 113 110 108 107 107 108 109 111 111 110 105 97 89 85 85 86 88 88 88 93 157 233 235 235 235 236 240
162 159 156 154 150 145 140 135 133 133 134 136 139 139 138 136 133 131 129 127 126 125 125 126 126 125 124 123 123 123 122 121 122 122 121 120 120 119 119 117 114 112 110 108 107 106 106 107 107 108 106 104 99 95 92 92 98 105 111 116 133 171 204 220 225 228 231 236 243
142 139 137 137 134 132 130 128 128 129 131 132 132 130 128 125 122 120 119 118 120 121 122 123 123 124 124 124 123 122 119 116 116 115 115 116 115 115 113 111 110 108 107 106 106 105 105 105 106 105 103 101 102 105 112 122 131 135 139 148 175 198 211 219 222 225 231 241 251
90 94 100 109 115 118 121 123 124 125 126 126 124 122 119 117 115 114 114 115 117 118 119 119 119 120 120 119 119 117 114 110 108 107 108 109 109 108 107 105 105 105 106 106 106 106 107 106 106 105 105 107 115 126 138 148 146 144 148 163 189 206 217 221 225 232 245 254 260
78 84 91 101 108 112 115 118 119 120 120 120 119 117 115 114 113 113 113 114 115 116 116 115 115 114 114 113 112 111 110 109 108 107 106 105 105 104 102 101 102 103 105 107 112 114 115 112 111 110 111 114 123 129 133 129 122 122 131 158 189 218 238 253 256 261 267 272 273
80 86 93 100 106 109 111 113 115 115 116 116 115 114 113 113 113 113 113 112 112 112 112 112 112 111 110 109 108 107 108 109 109 109 107 104 102 101 100 99 101 103 107 113 121 123 123 122 120 117 117 117 115 109 100 91 96 107 132 159 182 237 295 314 315 313 304 298 295
82 86 91 97 101 104 106 108 110 111 111 112 112 112 113 113 113 112 111 110 110 110 110 111 110 110 109 108 107 107 107 107 109 109 108 106 104 102 101 101 102 105 113 124 129 130 129 127 124 121 118 115 111 105 100 100 120 142 161 168 164 138 354 341 335 332 332 327 317
81 83 87 91 95 98 102 104 106 108 110 111 112 112 112 112 111 111 110 110 110 109 109 108 108 109 109 108 108 108 107 106 106 106 106 107 107 106 105 104 107 113 125 135 137 137 137 135 130 126 121 116 116 118 125 138 157 164 160 145 111 67 30 2 342 336 336 336 332
78 80 83 85 89 93 97 101 104 106 108 109 110 110 110 109 109 109 110 110 109 109 107 106 107 108 108 107 107 107 106 105 104 104 105 106 107 107 108 110 115 128 139 144 144 143 142 139 134 129 125 122 122 129 139 149 153 143 113 78 58 44 29 4 339 335 339 345 348
77 79 80 81 84 87 91 95 99 102 104 105 106 106 106 106 107 108 109 109 109 109 108 108 107 106 105 105 104 104 102 102 103 104 105 105 105 107 111 118 126 139 145 146 144 141 138 135 131 127 124 123 125 131 138 136 116 87 66 54 44 35 21 354 339 341 352 5 15
78 78 78 79 80 82 84 88 93 97 99 101 103 104 105 106 107 108 108 108 109 109 111 111 108 105 104 104 103 102 101 101 102 104 106 108 109 113 119 127 135 142 142 140 135 132 129 126 122 120 118 118 120 121 112 92 76 67 61 54 45 33 22 10 13 17 22 28 35
79 80 80 79 79 80 82 86 90 94 97 100 102 104 104 105 106 106 107 107 108 108 107 106 104 103 103 102 102 102 102 101 102 105 108 112 116 120 125 131 136 137 135 132 128 125 121 117 114 111 110 109 106 97 82 73 70 69 70 68 60 51 48 49 53 52 49 47 49
80 81 82 82 82 82 84 86 89 93 96 99 100 101 102 102 102 103 104 105 107 107 105 103 102 102 101 100 100 101 101 103 104 107 111 115 120 122 125 126 127 129 128 126 122 119 116 113 109 104 100 96 90 84 78 78 79 81 80 77 69 63 61 66 69 69 67 66 69
82 84 84 85 85 85 85 86 88 90 92 94 96 98 99 100 100 100 101 103 105 105 105 104 103 104 104 104 103 103 103 104 107 109 112 115 116 116 115 114 114 120 122 120 119 117 115 112 107 101 96 93 90 87 86 89 89 87 80 72 63 55 51 72 91 101 113 137 131
86 88 88 88 87 87 86 86 87 88 89 91 93 96 98 99 100 100 101 101 102 102 102 102 103 104 106 107 108 107 107 106 106 108 109 110 110 108 106 103 105 117 122 121 121 121 118 114 108 103 99 97 95 95 95 93 89 83 78 71 49 18 345 319 260 224 214 206 194
91 92 92 91 91 91 91 91 91 91 92 93 94 95 96 97 99 100 100 100 99 97 97 97 99 100 101 101 103 105 107 107 107 108 110 112 111 109 107 105 110 125 129 127 127 125 120 115 109 105 102 99 96 94 93 93 90 87 82 75 39 352 323 302 282 259 238 221 208
92 94 96 95 95 95 96 96 96 96 96 96 95 95 95 95 97 98 100 101 99 97 97 97 97 97 97 97 98 101 106 111 115 119 123 126 124 120 116 110 114 132 136 131 129 125 121 116 111 107 104 99 92 88 88 90 91 90 84 73 38 330 305 294 283 273 258 238 216
90 93 95 96 96 96 97 98 98 98 97 96 95 95 95 95 96 98 100 101 100 99 99 99 99 99 100 102 104 108 114 121 128 134 138 140 136 129 120 106 90 118 130 129 128 125 122 118 114 111 109 102 97 92 89 87 84 76 62 43 340 299 287 283 282 282 280 270 246
87 90 93 95 95 96 96 96 97 97 98 97 95 94 93 94 94 95 98 100 101 101 102 102 103 105 108 112 115 120 127 134 139 142 143 142 137 130 118 100 69 70 102 125 127 127 126 124 121 120 119 115 113 110 105 95 81 65 44 7 320 301 292 287 291 297 300 299 310
84 86 88 91 93 95 95 95 96 97 98 98 95 92 90 89 89 90 92 94 98 101 104 106 109 113 118 122 123 126 131 136 138 138 137 135 132 125 115 101 75 49 64 119 127 131 133 131 129 128 127 125 126 125 121 108 90 71 37 349 326 314 310 311 316 317 315 312 329
83 84 85 88 91 94 95 95 95 96 96 96 94 91 88 87 87 87 87 87 92 96 101 106 109 114 118 121 120 120 119 114 110 113 117 119 117 114 110 101 87 49 44 109 127 135 139 139 135 134 132 129 131 130 124 113 98 72 18 332 331 329 326 326 330 328 321 314 325
84 85 86 88 91 94 96 97 96 94 92 91 90 89 89 88 87 86 85 85 88 91 95 101 104 108 111 114 112 108 100 88 74 68 72 82 87 91 94 94 90 59 24 47 122 139 146 146 142 140 139 135 133 129 122 112 100 82 344 299 310 323 328 328 329 325 319 311 312